[[{"header":{"parameterUnit":"m.s-1","parameterCategory":1,"la1":30.2991,"la2":30.254,"lo1":-89.0895,"lo2":-89.0444,"dy":0.0017,"dx":0.0017,"nx":28,"ny":28,"refTime":"2024-02-15T09:00:00:Z","depth":0,"parameterNumber":2,"parameterNumberName":"U-component_of_WINDS"},"data":[0,0,0,0,0,0,0,0,0,0,0,0,0,0,0,0,0,0,0,0,0,0,0,0,0,0,0,0,0,0,0,0,0,0,0,0,0,0,0,0,0,0,0,0,0,0,0,0,0,0,0,0,0,0,0,0,0,0,-0.8978,-0.8978,0,-0.8959,-0.8959,-0.8959,-0.8936,-0.8936,-0.8935,-0.8935,-0.8915,-0.8915,-0.8914,0,0,0,0,0,0,0,0,0,0,0,0,0,-0.8995,-0.8995,-0.8978,-0.8978,-0.8978,-0.8959,-0.8959,-0.8959,-0.8936,-0.8936,-0.8935,-0.8935,-0.8915,-0.8915,-0.8914,0,0,0,0,0,0,0,0,0,0,0,0,0,-0.8983,-0.8995,-0.8978,-0.8964,-0.8963,-0.8959,-0.8959,-0.8959,-0.8936,-0.8936,-0.8935,-0.8935,-0.8915,-0.8915,-0.8914,-0.8923,0,0,-0.8913,-0.8913,0,0,0,0,0,0,0,0,-0.8984,-0.8982,-0.8967,-0.8965,-0.8964,-0.895,-0.8957,-0.8947,-0.8936,-0.8946,-0.8935,-0.8934,-0.8927,-0.8925,-0.8923,-0.8922,-0.8921,-0.8913,-0.8913,-0.8913,-0.8913,0,0,0,0,0,0,0,-0.8985,-0.8983,-0.8971,-0.8966,-0.8965,-0.8959,-0.8957,-0.8955,-0.894,-0.8945,-0.8944,-0.8942,-0.8926,-0.8923,-0.8922,-0.8921,-0.8913,-0.8913,-0.8913,-0.8913,-0.8926,-0.8927,0,0,0,0,0,0,-0.8988,-0.8984,-0.8971,-0.897,-0.8973,-0.8959,-0.8957,-0.8955,-0.894,-0.8937,-0.8942,-0.8941,-0.8924,-0.8923,-0.8922,-0.8931,-0.8913,-0.8913,-0.8913,-0.8926,-0.8926,-0.8927,0,0,0,0,0,0,-0.8988,-0.8987,-0.8972,-0.8977,-0.8974,-0.8959,-0.8957,-0.8954,-0.8952,-0.8937,-0.8934,-0.8943,-0.8924,-0.8922,-0.8923,-0.8929,-0.8913,-0.8912,-0.8925,-0.8926,-0.8926,-0.8949,0,0,0,0,0,0,-0.8989,-0.8987,-0.899,-0.8977,-0.8974,-0.8974,-0.8958,-0.8954,-0.8952,-0.8949,-0.8937,-0.8934,-0.8923,-0.8923,-0.8923,-0.8929,-0.8912,-0.8924,-0.8925,-0.8926,-0.8947,-0.895,-0.8953,0,0,0,0,0,-0.8989,-0.8997,-0.899,-0.8989,-0.8978,-0.8974,-0.8973,-0.896,-0.8952,-0.8955,-0.8946,-0.8935,-0.8929,-0.8924,-0.8922,-0.8929,-0.8924,-0.8925,-0.8926,-0.8946,-0.8949,-0.8952,0,0,0,0,0,0,-0.901,-0.8994,-0.8987,-0.8991,-0.8984,-0.897,-0.8973,-0.8964,-0.8959,-0.8957,-0.8942,-0.8939,-0.8942,-0.8935,-0.893,-0.8936,-0.8925,-0.8926,-0.894,-0.8944,-0.8946,-0.8947,-0.8912,0,0,0,0,0,-0.9015,-0.9014,-0.9,-0.9005,-0.9002,-0.8988,-0.8986,-0.8977,-0.897,-0.8967,-0.8957,-0.895,-0.8947,-0.8945,-0.8941,-0.8947,-0.8943,-0.895,-0.8953,-0.8955,-0.8956,-0.8959,-0.8962,-0.8931,-0.8931,-0.8931,0,0,-0.9026,-0.9017,-0.9017,-0.9009,-0.9002,-0.9001,-0.8986,-0.8985,-0.8984,-0.8966,-0.8967,-0.896,-0.8951,-0.8954,-0.8955,-0.8949,-0.8964,-0.8957,-0.8959,-0.8958,-0.896,-0.8963,-0.8966,-0.8932,-0.8932,-0.8931,0,0,-0.9044,-0.9037,-0.904,-0.9034,-0.9025,-0.9017,-0.9018,-0.9006,-0.9001,-0.9001,-0.8987,-0.8986,-0.8981,-0.8975,-0.8971,-0.8989,-0.8978,-0.8988,-0.9002,-0.9005,-0.9007,-0.9009,-0.9015,-0.9018,-0.8989,-0.8989,-0.8989,0,-0.9057,-0.9055,-0.9043,-0.9043,-0.904,-0.9024,-0.9027,-0.9023,-0.9013,-0.9011,-0.9004,-0.8998,-0.8991,-0.8992,-0.8997,-0.8995,-0.8995,-0.8989,-0.9008,-0.901,-0.9012,-0.9017,-0.902,-0.8991,-0.899,-0.899,-0.899,0,-0.9073,-0.9072,-0.9075,-0.9067,-0.9064,-0.9066,-0.9053,-0.9052,-0.9044,-0.9036,-0.9037,-0.9028,-0.9022,-0.9022,-0.9014,-0.9023,-0.902,-0.9011,-0.8999,-0.9016,-0.9021,-0.9023,-0.8992,-0.8992,-0.8991,-0.8991,0,0,-0.9102,-0.9088,-0.9089,-0.9085,-0.9075,-0.9074,-0.9075,-0.907,-0.9069,-0.9063,-0.9064,-0.9061,-0.9053,-0.9049,-0.904,-0.9042,-0.9057,-0.9033,-0.9033,-0.9038,-0.9067,-0.9073,-0.9076,-0.905,-0.9051,-0.9051,-0.9067,0,-0.9118,-0.9119,-0.9109,-0.9113,-0.9112,-0.9098,-0.9099,-0.9093,-0.9086,-0.9084,-0.9076,-0.9074,-0.9063,-0.9061,-0.9063,-0.9055,-0.9062,-0.9053,-0.9051,-0.9051,-0.9053,-0.9078,-0.9085,-0.9101,-0.9069,-0.907,-0.907,0,-0.9136,-0.9132,-0.9136,-0.9126,-0.9126,-0.9127,-0.9122,-0.912,-0.9113,-0.9108,-0.9104,-0.9094,-0.9095,-0.9084,-0.9085,-0.9079,-0.9078,-0.9074,-0.9074,-0.9073,-0.9061,-0.9077,-0.9105,-0.9108,-0.9073,-0.9073,-0.9072,0,-0.9157,-0.9152,-0.9155,-0.9152,-0.914,-0.9142,-0.9137,-0.9129,-0.9127,-0.9123,-0.9122,-0.9117,-0.9115,-0.9112,-0.9101,-0.9094,-0.9104,-0.9092,-0.9099,-0.9099,-0.9101,-0.9101,-0.9128,-0.9101,-0.9101,-0.9101,-0.9101,0,-0.9175,-0.9178,-0.9164,-0.9165,-0.9168,-0.9156,-0.916,-0.9154,-0.9148,-0.9147,-0.9135,-0.9135,-0.9122,-0.912,-0.9112,-0.9114,-0.9113,-0.9109,-0.9106,-0.911,-0.911,-0.9108,-0.9106,-0.9101,-0.9101,-0.9101,-0.9101,0,-0.9199,-0.9189,-0.919,-0.918,-0.9177,-0.918,-0.9171,-0.9172,-0.9165,-0.9165,-0.9164,-0.9153,-0.9151,-0.914,-0.9135,-0.913,-0.9135,-0.913,-0.9137,-0.9136,-0.9143,-0.9142,-0.917,-0.9173,-0.9144,-0.9144,-0.9145,0,-0.921,-0.9213,-0.9203,-0.9202,-0.9198,-0.9197,-0.9195,-0.9184,-0.9182,-0.9175,-0.9177,-0.9174,-0.9171,-0.9168,-0.916,-0.9156,-0.9151,-0.9161,-0.9151,-0.9154,-0.9151,-0.9151,-0.9151,-0.9163,-0.9164,-0.9164,-0.9164,0,-0.9233,-0.9228,-0.9226,-0.9222,-0.922,-0.9217,-0.9213,-0.9213,-0.92,-0.9199,-0.9197,-0.9195,-0.9191,-0.9188,-0.9184,-0.9179,-0.9169,-0.9168,-0.9169,-0.9172,-0.9176,-0.9174,-0.9143,-0.9167,-0.9167,-0.9166,-0.9166,-0.9166,-0.925,-0.9252,-0.9245,-0.9243,-0.9239,-0.9236,-0.9236,-0.923,-0.9228,-0.9224,-0.9217,-0.9216,-0.921,-0.9203,-0.9199,-0.9198,-0.9193,-0.9195,-0.9195,-0.9196,-0.9197,-0.9177,-0.9197,-0.9197,-0.9197,-0.9197,-0.9197,0,-0.9272,-0.9267,-0.9266,-0.926,-0.9259,-0.9251,-0.9247,-0.9246,-0.9245,-0.924,-0.9238,-0.9236,-0.9234,-0.9226,-0.9222,-0.9223,-0.9219,-0.9223,-0.9222,-0.9221,-0.9202,-0.9201,-0.9226,-0.9226,-0.9226,-0.9226,-0.9226,-0.9226,-0.9282,-0.9285,-0.9279,-0.928,-0.9275,-0.9274,-0.9272,-0.9269,-0.9265,-0.9264,-0.9262,-0.9257,-0.9251,-0.9247,-0.9245,-0.9243,-0.9242,-0.9247,-0.9243,-0.9225,-0.9223,-0.922,-0.9219,-0.9247,-0.9247,-0.9262,-0.9262,-0.9262]},{"header":{"parameterUnit":"m.s-1","parameterCategory":1,"la1":30.2991,"la2":30.254,"lo1":-89.0895,"lo2":-89.0444,"dy":0.0017,"dx":0.0017,"nx":28,"ny":28,"refTime":"2024-02-15T09:00:00:Z","depth":0,"parameterNumber":3,"parameterNumberName":"V-component_of_WINDS"},"data":[0,0,0,0,0,0,0,0,0,0,0,0,0,0,0,0,0,0,0,0,0,0,0,0,0,0,0,0,0,0,0,0,0,0,0,0,0,0,0,0,0,0,0,0,0,0,0,0,0,0,0,0,0,0,0,0,0,0,-0.718,-0.718,0,-0.7235,-0.7235,-0.7236,-0.7225,-0.7224,-0.7223,-0.7222,-0.7281,-0.7284,-0.7286,0,0,0,0,0,0,0,0,0,0,0,0,0,-0.7068,-0.707,-0.718,-0.718,-0.7181,-0.7234,-0.7235,-0.7236,-0.7225,-0.7224,-0.7223,-0.7221,-0.728,-0.7283,-0.7286,0,0,0,0,0,0,0,0,0,0,0,0,0,-0.7119,-0.7071,-0.718,-0.7182,-0.7183,-0.7234,-0.7235,-0.7236,-0.7225,-0.7224,-0.7222,-0.7221,-0.7279,-0.7283,-0.7287,-0.734,0,0,-0.7298,-0.73,0,0,0,0,0,0,0,0,-0.7116,-0.7123,-0.7181,-0.7182,-0.7183,-0.7221,-0.7218,-0.7271,-0.7226,-0.7209,-0.7222,-0.722,-0.7263,-0.7268,-0.7281,-0.7343,-0.7346,-0.7299,-0.7301,-0.7303,-0.7304,0,0,0,0,0,0,0,-0.7113,-0.7121,-0.7202,-0.7182,-0.7183,-0.7181,-0.7187,-0.7228,-0.7244,-0.7211,-0.721,-0.7216,-0.7263,-0.7278,-0.7283,-0.7347,-0.7298,-0.7302,-0.7304,-0.7306,-0.7455,-0.7456,0,0,0,0,0,0,-0.7108,-0.7118,-0.72,-0.7203,-0.7145,-0.7184,-0.7191,-0.7211,-0.7243,-0.7247,-0.7218,-0.7216,-0.7272,-0.7278,-0.7285,-0.7349,-0.7302,-0.7306,-0.7308,-0.7453,-0.7455,-0.7457,0,0,0,0,0,0,-0.7106,-0.7116,-0.7198,-0.7161,-0.7171,-0.7188,-0.721,-0.7212,-0.7227,-0.7249,-0.7252,-0.723,-0.7271,-0.7279,-0.7326,-0.7351,-0.7308,-0.7311,-0.7451,-0.7454,-0.7456,-0.7479,0,0,0,0,0,0,-0.7103,-0.7115,-0.7135,-0.7161,-0.7173,-0.7238,-0.7212,-0.7215,-0.7233,-0.7231,-0.7261,-0.7264,-0.7271,-0.7321,-0.733,-0.7356,-0.7314,-0.7449,-0.7452,-0.7455,-0.7476,-0.7482,-0.7487,0,0,0,0,0,-0.7099,-0.714,-0.7136,-0.7146,-0.7198,-0.7239,-0.7246,-0.7251,-0.7235,-0.7256,-0.727,-0.7263,-0.7347,-0.7326,-0.7336,-0.7363,-0.7447,-0.7451,-0.7455,-0.7474,-0.7481,-0.7487,0,0,0,0,0,0,-0.7118,-0.7143,-0.7139,-0.719,-0.7212,-0.7237,-0.7263,-0.7259,-0.7287,-0.7284,-0.7291,-0.7298,-0.7345,-0.7359,-0.7335,-0.7417,-0.7395,-0.7401,-0.7406,-0.7413,-0.7418,-0.7414,-0.7317,0,0,0,0,0,-0.7127,-0.7158,-0.7179,-0.7222,-0.7233,-0.7246,-0.7264,-0.7266,-0.729,-0.73,-0.7317,-0.7341,-0.7373,-0.7394,-0.7424,-0.7478,-0.7485,-0.7502,-0.7508,-0.7512,-0.7517,-0.7547,-0.7555,-0.7469,-0.7469,-0.7469,0,0,-0.7149,-0.7166,-0.7185,-0.7226,-0.7243,-0.7275,-0.7254,-0.7289,-0.7313,-0.7306,-0.735,-0.7364,-0.7391,-0.7442,-0.7465,-0.7455,-0.7542,-0.7517,-0.752,-0.7523,-0.7552,-0.756,-0.7567,-0.7472,-0.7471,-0.7471,0,0,-0.7203,-0.722,-0.7257,-0.7274,-0.7301,-0.7309,-0.7318,-0.7343,-0.7351,-0.7396,-0.7391,-0.742,-0.7475,-0.7494,-0.7511,-0.7572,-0.7568,-0.7582,-0.7611,-0.764,-0.7647,-0.7653,-0.7674,-0.7682,-0.7587,-0.7588,-0.7588,0,-0.7226,-0.7273,-0.7277,-0.7312,-0.733,-0.7323,-0.7361,-0.7379,-0.7414,-0.7427,-0.7415,-0.7482,-0.75,-0.7555,-0.757,-0.7584,-0.7595,-0.7579,-0.7645,-0.7651,-0.7657,-0.7678,-0.7686,-0.7589,-0.7589,-0.7589,-0.7589,0,-0.73,-0.7333,-0.736,-0.7393,-0.7414,-0.7451,-0.746,-0.7481,-0.7482,-0.7491,-0.7537,-0.7558,-0.7593,-0.7606,-0.7607,-0.7661,-0.7654,-0.7643,-0.7622,-0.7667,-0.7686,-0.7694,-0.7591,-0.7591,-0.759,-0.759,0,0,-0.7369,-0.7403,-0.7413,-0.7427,-0.7455,-0.7481,-0.7517,-0.7549,-0.7567,-0.7592,-0.7623,-0.7669,-0.7659,-0.7678,-0.7681,-0.7706,-0.7753,-0.7693,-0.7694,-0.7703,-0.7814,-0.7822,-0.7831,-0.775,-0.7752,-0.7753,-0.7812,0,-0.7426,-0.7489,-0.7493,-0.755,-0.758,-0.7574,-0.7606,-0.7627,-0.7637,-0.7664,-0.7676,-0.7708,-0.7693,-0.7704,-0.7729,-0.7742,-0.7776,-0.7738,-0.7779,-0.7781,-0.7773,-0.7841,-0.785,-0.7904,-0.7819,-0.7821,-0.7822,0,-0.7502,-0.7527,-0.7586,-0.761,-0.7623,-0.7651,-0.768,-0.7707,-0.7731,-0.7736,-0.7757,-0.7757,-0.7794,-0.7771,-0.7823,-0.7798,-0.7815,-0.7824,-0.7826,-0.7831,-0.7804,-0.7848,-0.7922,-0.793,-0.7834,-0.7833,-0.7832,0,-0.7545,-0.7595,-0.7637,-0.7649,-0.7677,-0.7697,-0.771,-0.7732,-0.7751,-0.7778,-0.779,-0.7821,-0.7838,-0.7862,-0.787,-0.7852,-0.7922,-0.7899,-0.7928,-0.7928,-0.7944,-0.7943,-0.8022,-0.7954,-0.7954,-0.7954,-0.7954,0,-0.7609,-0.7646,-0.7656,-0.7682,-0.7723,-0.7728,-0.7769,-0.7781,-0.78,-0.7829,-0.7826,-0.7853,-0.7861,-0.789,-0.7897,-0.7939,-0.7947,-0.7953,-0.7954,-0.7953,-0.7952,-0.7965,-0.7961,-0.7956,-0.7956,-0.7955,-0.7955,0,-0.7665,-0.7674,-0.7719,-0.7742,-0.7748,-0.7777,-0.7797,-0.7822,-0.7831,-0.7868,-0.7876,-0.7891,-0.7925,-0.7935,-0.7976,-0.798,-0.8029,-0.8027,-0.8021,-0.8021,-0.8049,-0.8047,-0.814,-0.8152,-0.8076,-0.8077,-0.8078,0,-0.7705,-0.7733,-0.7758,-0.7777,-0.779,-0.782,-0.7839,-0.7844,-0.7864,-0.7893,-0.7915,-0.7948,-0.7974,-0.8028,-0.8043,-0.8074,-0.8073,-0.8103,-0.8078,-0.8076,-0.8074,-0.8072,-0.8075,-0.8108,-0.8109,-0.811,-0.811,0,-0.7775,-0.7778,-0.7805,-0.7833,-0.7856,-0.7879,-0.7901,-0.7916,-0.7925,-0.7948,-0.7981,-0.8002,-0.8043,-0.8076,-0.8107,-0.8121,-0.8118,-0.8118,-0.8126,-0.8126,-0.8121,-0.8124,-0.8034,-0.8116,-0.8116,-0.8115,-0.8115,-0.8115,-0.7825,-0.7849,-0.787,-0.7901,-0.7917,-0.7938,-0.7962,-0.7974,-0.8002,-0.8035,-0.8036,-0.8073,-0.8096,-0.8137,-0.8153,-0.8182,-0.8173,-0.8186,-0.8189,-0.8192,-0.8194,-0.8116,-0.8188,-0.8188,-0.8188,-0.8188,-0.8187,0,-0.7895,-0.7908,-0.7935,-0.7966,-0.7989,-0.7983,-0.8007,-0.8027,-0.8059,-0.808,-0.8106,-0.8144,-0.8176,-0.8193,-0.8224,-0.8244,-0.8244,-0.8253,-0.8251,-0.8255,-0.82,-0.8189,-0.8253,-0.8253,-0.8253,-0.8253,-0.8253,-0.8253,-0.7934,-0.7975,-0.798,-0.8029,-0.8042,-0.8077,-0.8091,-0.811,-0.8127,-0.817,-0.8195,-0.8206,-0.8225,-0.8258,-0.8287,-0.8291,-0.8303,-0.8313,-0.8316,-0.8265,-0.8258,-0.8252,-0.8242,-0.8316,-0.8316,-0.8369,-0.8369,-0.837]}]]